North Bend, OR

3:14 PM PDT on March 25, 2017 (GMT -0700)
North Bend Municipal

Weather History for KOTH - March, 2015

Change the Weather History Date:

Saturday, March 7, 2015

  Actual Average Record
Temperature  
Mean Temperature 50 °F 47 °F  
Max Temperature 55 °F 54 °F 86 °F (1905)
Min Temperature 45 °F 41 °F 28 °F (1924)
Degree Days  
Heating Degree Days 15 18  
Month to date heating degree days 127 126  
Since 1 July heating degree days 2231 3300  
Cooling Degree Days 0 0  
Month to date cooling degree days 0 0  
Year to date cooling degree days 0 0  
Moisture  
Dew Point 48 °F    
Average Humidity 94    
Maximum Humidity 100    
Minimum Humidity 83    
Precipitation  
Precipitation 0.00 in 0.26 in 1.25 in (1986)
Month to date precipitation 0.24 1.91  
Year to date precipitation 10.45 19.69  
Sea Level Pressure  
Sea Level Pressure 30.24 in    
Wind  
Wind Speed 8 mph (NNE)    
Max Wind Speed 17 mph    
Max Gust Speed 18 mph    
Visibility 9 miles    
Events      
T = Trace of Precipitation, MM = Missing Value Source: NWS Daily Summary

Daily Weather History Graph

Daily Weather History Graph

Search for Another Location

Airport or City:

Trip Planner

Search our weather history database for the weather conditions in past years. The results will help you decide how hot, cold, wet, or windy it might be!

Date:

Astronomy

Mar. 07, 2015 Rise Set
Actual Time 6:43 AM PST 6:13 PM PST
Civil Twilight 6:14 AM PST 6:41 PM PST
Nautical Twilight 5:41 AM PST 7:14 PM PST
Astronomical Twilight 5:08 AM PST 7:48 PM PST
Moon 8:24 PM PST (3/7) 7:30 AM PST (3/7)
Length of Visible Light 12h 27m
Length of Day
11h 29m
Waning Gibbous, 96% of the Moon is Illuminated
Mar 7
Waning Gibbous
Mar 13
Last Quarter
Mar 20
New
Mar 27
First Quarter
Apr 4
Full

Hourly Weather History & Observations

Time (PST) Temp. Windchill Dew Point Humidity Pressure Visibility Wind Dir Wind Speed Gust Speed Precip Events Conditions
12:15 AM 50.0 °F - 48.2 °F 94% 30.34 in 10.0 mi NE 6.9 mph - N/A   Overcast
12:35 AM 50.0 °F - 48.2 °F 94% 30.34 in 10.0 mi NE 6.9 mph - N/A   Overcast
12:55 AM 50.0 °F - 48.2 °F 94% 30.34 in 10.0 mi NE 5.8 mph - N/A   Overcast
1:15 AM 50.0 °F - 48.2 °F 94% 30.33 in 10.0 mi ENE 5.8 mph - N/A   Overcast
1:35 AM 50.0 °F - 48.2 °F 94% 30.33 in 10.0 mi NE 5.8 mph - N/A   Overcast
1:55 AM 50.0 °F - 48.2 °F 94% 30.33 in 10.0 mi NE 6.9 mph - N/A   Overcast
2:15 AM 50.0 °F - 48.2 °F 94% 30.32 in 10.0 mi NE 5.8 mph - N/A   Overcast
2:35 AM 48.2 °F - 46.4 °F 93% 30.32 in 10.0 mi NE 6.9 mph - N/A   Overcast
2:55 AM 48.2 °F - 46.4 °F 93% 30.31 in 10.0 mi NE 5.8 mph - N/A   Overcast
3:15 AM 48.2 °F - 46.4 °F 93% 30.31 in 10.0 mi ENE 4.6 mph - N/A   Overcast
3:35 AM 48.2 °F - 48.2 °F 100% 30.30 in 10.0 mi ENE 3.5 mph - N/A   Overcast
3:55 AM 48.2 °F - 48.2 °F 100% 30.30 in 10.0 mi NNE 3.5 mph - N/A   Overcast
4:15 AM 48.2 °F - 48.2 °F 100% 30.29 in 10.0 mi NNE 6.9 mph - N/A   Overcast
4:35 AM 48.2 °F - 48.2 °F 100% 30.29 in 10.0 mi NNE 5.8 mph - N/A   Overcast
4:55 AM 48.2 °F - 48.2 °F 100% 30.29 in 10.0 mi North 8.1 mph - N/A   Overcast
5:15 AM 48.2 °F - 48.2 °F 100% 30.29 in 10.0 mi North 9.2 mph - N/A   Overcast
5:35 AM 48.2 °F - 48.2 °F 100% 30.29 in 10.0 mi North 8.1 mph - N/A   Overcast
5:55 AM 48.2 °F - 48.2 °F 100% 30.29 in 10.0 mi NE 6.9 mph - N/A   Overcast
6:15 AM 48.2 °F - 48.2 °F 100% 30.29 in 10.0 mi NNE 9.2 mph - N/A   Overcast
6:35 AM 48.2 °F - 46.4 °F 93% 30.29 in 10.0 mi North 8.1 mph - N/A   Overcast
6:55 AM 48.2 °F - 48.2 °F 100% 30.29 in 9.0 mi NNE 6.9 mph - N/A   Overcast
7:15 AM 48.2 °F - 46.4 °F 93% 30.29 in 10.0 mi North 6.9 mph - N/A   Overcast
7:35 AM 48.2 °F - 46.4 °F 93% 30.29 in 10.0 mi NE 6.9 mph - N/A   Overcast
7:55 AM 48.2 °F - 46.4 °F 93% 30.29 in 10.0 mi NE 6.9 mph - N/A   Overcast
8:15 AM 46.4 °F 45.2 °F 44.6 °F 93% 30.29 in 10.0 mi NNE 3.5 mph - N/A   Overcast
8:35 AM 46.4 °F 44.3 °F 44.6 °F 93% 30.29 in 10.0 mi North 4.6 mph - N/A   Overcast
8:55 AM 48.2 °F - 46.4 °F 93% 30.30 in 10.0 mi Calm Calm - N/A   Overcast
9:15 AM 48.2 °F - 46.4 °F 93% 30.29 in 10.0 mi North 3.5 mph - N/A   Overcast
9:35 AM 50.0 °F - 48.2 °F 94% 30.29 in 10.0 mi North 3.5 mph - N/A   Scattered Clouds
9:55 AM 51.8 °F - 48.2 °F 88% 30.28 in 10.0 mi North 3.5 mph - N/A   Clear
10:15 AM 51.8 °F - 48.2 °F 88% 30.28 in 10.0 mi North 3.5 mph - N/A   Clear
10:35 AM 53.6 °F - 48.2 °F 82% 30.27 in 10.0 mi NNW 5.8 mph - N/A   Clear
10:55 AM 53.6 °F - 50.0 °F 88% 30.27 in 10.0 mi North 9.2 mph - N/A   Clear
11:15 AM 53.6 °F - 50.0 °F 88% 30.26 in 10.0 mi NNW 11.5 mph - N/A   Clear
11:35 AM 53.6 °F - 50.0 °F 88% 30.26 in 10.0 mi North 13.8 mph - N/A   Clear
11:55 AM 55.4 °F - 50.0 °F 82% 30.25 in 10.0 mi North 13.8 mph - N/A   Clear
12:15 PM 55.4 °F - 51.8 °F 88% 30.25 in 10.0 mi North 12.7 mph - N/A   Clear
12:35 PM 55.4 °F - 51.8 °F 88% 30.24 in 10.0 mi North 10.4 mph - N/A   Clear
12:55 PM 55.4 °F - 51.8 °F 88% 30.23 in 10.0 mi North 13.8 mph 18.4 mph N/A   Clear
1:15 PM 55.4 °F - 51.8 °F 88% 30.22 in 10.0 mi North 15.0 mph - N/A   Clear
1:35 PM 55.4 °F - 51.8 °F 88% 30.21 in 10.0 mi North 15.0 mph 21.9 mph N/A   Clear
1:55 PM 55.4 °F - 51.8 °F 88% 30.21 in 10.0 mi North 16.1 mph - N/A   Clear
2:15 PM 55.4 °F - 51.8 °F 88% 30.20 in 10.0 mi North 18.4 mph - N/A   Clear
2:35 PM 55.4 °F - 51.8 °F 88% 30.20 in 10.0 mi North 15.0 mph - N/A   Clear
2:55 PM 55.4 °F - 50.0 °F 82% 30.20 in 10.0 mi North 15.0 mph - N/A   Clear
3:15 PM 53.6 °F - 51.8 °F 94% 30.19 in 10.0 mi North 20.7 mph - N/A   Clear
3:35 PM 53.6 °F - 51.8 °F 94% 30.18 in 10.0 mi North 19.6 mph 25.3 mph N/A   Clear
3:55 PM 55.4 °F - 51.8 °F 88% 30.18 in 10.0 mi North 16.1 mph - N/A   Clear
4:15 PM 53.6 °F - 50.0 °F 88% 30.18 in 10.0 mi North 16.1 mph - N/A   Clear
4:35 PM 53.6 °F - 50.0 °F 88% 30.17 in 10.0 mi North 17.3 mph - N/A   Clear
4:55 PM 51.8 °F - 50.0 °F 94% 30.17 in 10.0 mi North 17.3 mph - N/A   Clear
5:15 PM 51.8 °F - 50.0 °F 94% 30.17 in 10.0 mi North 16.1 mph 20.7 mph N/A   Clear
5:35 PM 51.8 °F - 50.0 °F 94% 30.16 in 10.0 mi North 16.1 mph - N/A   Clear
5:55 PM 51.8 °F - 50.0 °F 94% 30.16 in 10.0 mi North 11.5 mph - N/A   Clear
6:15 PM 51.8 °F - 48.2 °F 88% 30.17 in 10.0 mi North 6.9 mph - N/A   Clear
6:35 PM 50.0 °F - 48.2 °F 94% 30.17 in 10.0 mi North 5.8 mph - N/A   Clear
6:55 PM 50.0 °F - 50.0 °F 100% 30.17 in 10.0 mi North 6.9 mph - N/A   Clear
7:15 PM 50.0 °F - 48.2 °F 94% 30.18 in 10.0 mi NNE 6.9 mph - N/A   Clear
7:35 PM 50.0 °F - 48.2 °F 94% 30.18 in 10.0 mi North 4.6 mph - N/A   Clear
7:55 PM 50.0 °F - 48.2 °F 94% 30.18 in 7.0 mi NNE 3.5 mph - N/A   Clear
8:15 PM 48.2 °F - 48.2 °F 100% 30.18 in 10.0 mi Calm Calm - N/A   Clear
8:35 PM 46.4 °F 45.2 °F 44.6 °F 93% 30.18 in 8.0 mi SE 3.5 mph - N/A   Clear
8:55 PM 46.4 °F 44.3 °F 46.4 °F 100% 30.18 in 8.0 mi SSE 4.6 mph - N/A   Clear
9:15 PM 44.6 °F 42.2 °F 44.6 °F 100% 30.18 in 5.0 mi SSE 4.6 mph - N/A   Clear
9:35 PM 44.6 °F 42.2 °F 44.6 °F 100% 30.19 in 5.0 mi SE 4.6 mph - N/A   Clear
9:55 PM 44.6 °F 43.1 °F 44.6 °F 100% 30.19 in 4.0 mi SE 3.5 mph - N/A   Clear
10:15 PM 44.6 °F 43.1 °F 44.6 °F 100% 30.19 in 2.5 mi SSE 3.5 mph - N/A   Partly Cloudy
10:35 PM 44.6 °F 42.2 °F 42.8 °F 93% 30.19 in 0.2 mi SE 4.6 mph - N/A   Overcast
10:55 PM 44.6 °F 43.1 °F 44.6 °F 100% 30.19 in 0.2 mi SSE 3.5 mph - N/A   Overcast
11:15 PM 44.6 °F 41.4 °F 44.6 °F 100% 30.19 in 0.2 mi SE 5.8 mph - N/A   Overcast
11:35 PM 44.6 °F 41.4 °F 44.6 °F 100% 30.19 in 0.2 mi SE 5.8 mph - N/A   Overcast
11:55 PM 44.6 °F 43.1 °F 44.6 °F 100% 30.18 in 0.2 mi SSE 3.5 mph - N/A   Overcast